ECHOSTAR 17

Last updated on Thu Oct 30 2025 00:02:49 GMT+0000 (Coordinated Universal Time)

1 38551U 12035A 25302.49275625 -.00000066 00000+0 00000+0 0 9996 2 38551 0.0174 232.1226 0002097 344.1105 252.1632 1.00271346 48759
UTC large
Height (km)
Speed (km/s)
/
Latitude / Longitude
Inclination (degrees)
Orbital Period (minutes)
Azimuth
Elevation
Range (km)
Doppler Factor

Next 0 passes for location: London (51.5072 / 0.1276)

Sorry there are no passes over London.